Probability
0 0 0 0 0 0 0 0 0 0 0 0 0 0 0 0 0 0 0 0 0 0 0 0 0 0 0 0 0 0 0 0 0 0 0 0 0 0 0 0 0 0 0
0 0 0 0 0 0 0 0 0 0 0 0 0 0 0 0 0 0 0 0 0 0 0 0 0 0 0 0 0 0 0 0 0 0 0 0 0 0 0 0 0 0 0
0 0 0 0 0 0 0 0 0 0 0 0 0 0 0 0 0 0 0 0 0 0 0 0 0 0 0 0 0 0 0 0 0 0 0 0 0 0 1 1 0 0 0
0 0 0 0 0 0 0 0 0 0 0 0 0 0 0 0 0 0 0 0 0 0 0 0 0 0 0 0 0 0 0 0 0 0 0 0 0 1 2 2 1 0 0
0 0 0 0 0 0 0 0 0 0 0 0 0 0 0 0 0 0 0 0 0 0 0 0 0 0 0 0 0 0 0 0 0 0 0 0 0 1 3 2 1 0 0
0 0 0 0 0 0 0 0 0 0 0 0 0 0 0 0 0 0 0 0 0 0 0 0 0 0 0 0 0 0 0 0 0 0 0 0 0 2 4 3 1 0 0
0 0 0 0 0 0 0 0 0 0 0 0 0 0 0 0 0 0 0 0 0 0 0 0 0 0 0 0 0 0 0 0 0 0 0 0 0 2 4 5 3 1 0
0 0 0 0 0 0 0 0 0 0 0 0 0 0 0 0 0 0 0 0 0 0 0 0 0 0 0 0 0 0 0 0 0 0 0 0 0 1 4 6 5 1 0
0 0 0 0 0 0 0 0 0 0 0 0 0 0 0 0 0 0 0 0 0 0 0 0 0 0 0 0 0 0 0 0 0 0 0 0 0 0 3 6 5 2 0
0 0 0 0 0 0 0 0 0 0 0 0 0 0 0 0 0 0 0 0 0 0 0 0 0 0 0 0 0 0 0 0 0 0 0 0 0 0 2 5 5 2 1
0 0 0 0 0 0 0 0 0 0 0 0 0 0 0 0 0 0 0 0 0 0 0 0 0 0 0 0 0 0 0 0 0 0 0 0 0 0 1 3 5 4 3
0 0 0 0 0 0 0 0 0 0 0 0 0 0 0 0 0 0 0 0 0 0 0 0 0 0 0 0 0 0 0 0 0 0 0 0 0 1 2 3 4 5 4
0 0 0 0 0 0 0 0 0 0 0 0 0 0 0 0 0 0 0 0 0 0 0 0 0 0 0 0 0 0 0 0 0 0 0 0 1 1 3 5 6 5 3
0 0 0 0 0 0 0 0 0 0 0 0 0 0 0 0 0 0 0 0 0 0 0 0 0 0 0 0 0 0 0 0 0 0 0 0 1 2 4 8 9 5 2
0 0 0 0 0 0 0 0 0 0 0 0 0 0 0 0 0 0 0 0 0 0 0 0 0 0 0 0 0 0 0 0 0 0 0 0 1 1 3 7 8 5 2
0 0 0 0 0 0 0 0 0 0 0 0 0 0 0 0 0 0 0 0 0 0 0 0 0 0 0 0 0 0 0 0 0 0 0 0 0 0 1 3 4 2 1
0 0 0 0 0 0 0 0 0 0 0 0 0 0 0 0 0 0 0 0 0 0 0 0 0 0 0 0 0 0 0 0 0 0 0 0 0 0 0 1 1 0 0
0 0 0 0 0 0 0 0 0 0 0 0 0 0 0 0 0 0 0 0 0 0 0 0 0 0 0 0 0 0 0 0 0 0 0 0 0 0 0 0 0 0 0
0 0 0 0 0 0 0 0 0 0 0 0 0 0 0 0 0 0 0 0 0 0 0 0 0 0 0 0 0 0 0 0 0 0 0 0 0 0 0 0 0 0 0
0 0 0 0 0 0 0 0 0 0 0 0 0 0 0 0 0 0 0 0 0 0 0 0 0 0 0 0 0 0 0 0 0 0 0 0 0 0 0 0 0 0 0
0 0 0 0 0 0 0 0 0 0 0 0 0 0 0 0 0 0 0 0 0 0 0 0 0 0 0 0 0 0 0 0 0 0 0 0 0 0 0 0 0 0 0
0 0 0 0 0 0 0 0 0 0 0 0 0 0 0 0 0 0 0 0 0 0 0 0 0 0 0 0 0 0 0 0 0 0 0 0 0 0 0 0 0 0 0
0 0 0 0 0 0 0 0 0 0 0 0 0 0 0 0 0 0 0 0 0 0 0 0 0 0 0 0 0 0 0 0 0 0 0 0 0 0 0 0 0 0 0
0 0 0 0 0 0 0 0 0 0 0 0 0 0 0 0 0 0 0 0 0 0 0 0 0 0 0 0 0 0 0 0 0 0 0 0 0 0 0 0 0 0 0
0 0 0 0 0 0 0 0 0 0 0 0 0 0 0 0 0 0 0 0 0 0 0 0 0 0 0 0 0 0 0 0 0 0 0 0 0 0 0 0 0 0 0
0 0 0 0 0 0 0 0 0 0 0 0 0 0 0 0 0 0 0 0 0 0 0 0 0 0 0 0 0 0 0 0 0 0 0 0 0 0 0 0 0 0 0
Wind_Speed
6 5 5 5 5 5 5 6 6 6 6 6 6 6 6 6 5 4 5 5 5 5 5 5 5 4 3 3 3 4 4 4 5 4 2 3 3 2 1 1 1 2 4
6 5 6 6 5 5 6 7 6 7 7 7 7 7 8 7 6 6 7 6 6 7 7 6 7 5 5 4 4 5 5 5 5 5 3 2 2 1 1 2 2 2 3
5 5 5 6 6 6 7 7 6 7 7 7 7 8 8 8 8 8 8 8 8 8 8 8 8 7 7 5 5 5 5 5 5 5 4 2 2 1 2 3 3 3 3
5 5 6 7 6 7 7 7 7 7 7 8 8 8 9 9 9 9 8 9 9 8 8 8 9 9 9 8 6 7 6 5 5 5 5 3 3 2 3 4 3 2 2
5 6 7 7 6 6 6 7 7 7 8 8 8 9 9 8 9 9 9 9 9 9 9 9 9 11 13 10 7 7 6 5 5 5 5 4 3 3 4 4 5 4 2
5 7 7 6 6 6 7 7 7 8 8 8 9 9 9 9 11 14 12 9 9 10 11 10 10 12 14 15 16 14 11 8 8 6 5 6 6 5 5 5 5 5 4
6 6 6 6 6 7 7 7 8 8 8 9 9 9 10 11 15 16 17 11 10 11 11 10 10 10 11 10 13 16 15 16 14 9 9 8 7 6 7 8 7 6 4
5 6 6 6 7 7 7 8 8 7 8 8 9 10 10 12 14 15 16 12 10 11 12 12 12 12 10 10 10 11 11 11 11 11 10 9 8 7 7 8 7 7 5
6 6 6 6 7 7 8 8 8 7 8 8 9 10 11 12 14 14 13 8 9 11 11 12 12 13 14 14 12 12 11 10 11 13 13 12 12 11 8 6 8 9 6
6 6 6 6 7 8 9 9 8 7 8 9 10 10 10 12 13 14 11 6 8 9 9 10 14 15 14 15 13 12 13 11 10 9 10 12 11 11 12 10 9 9 6
5 5 6 6 7 8 8 8 8 8 8 9 10 10 10 11 12 13 11 6 7 8 8 8 8 13 16 16 15 12 13 11 9 10 9 9 8 8 9 9 9 8 8
5 5 6 7 7 7 7 8 8 8 8 9 9 10 8 7 8 9 10 9 8 8 8 7 8 12 14 15 13 12 14 12 8 8 8 8 8 8 7 9 10 9 6
5 6 7 7 7 7 8 8 8 7 6 7 7 8 8 6 6 9 10 10 10 7 7 10 11 12 12 11 14 15 13 9 9 9 9 9 8 8 7 7 9 8 7
5 6 6 7 8 7 6 6 7 7 7 7 7 7 8 7 6 4 4 5 6 6 6 8 9 10 9 8 8 10 9 9 9 9 9 8 7 7 8 7 7 8 7
5 6 6 7 7 7 7 6 8 8 8 8 8 8 8 8 6 5 5 5 4 5 5 4 4 4 5 5 6 7 8 8 9 8 8 8 8 8 7 7 7 7 7
5 6 5 5 6 6 7 8 9 11 13 14 15 13 9 12 11 10 8 8 9 8 5 4 4 4 4 4 5 6 7 8 8 8 8 8 8 8 8 7 7 8 8
6 6 5 6 6 7 7 7 10 10 9 11 11 10 11 12 11 10 8 8 8 7 4 4 4 4 4 4 4 4 5 6 7 7 8 8 8 8 8 8 8 9 8
6 8 7 6 6 6 7 7 7 8 10 8 8 9 9 10 9 8 6 4 4 4 4 5 5 4 4 4 3 4 4 4 5 6 7 7 8 9 9 9 9 9 9
6 5 5 6 6 6 7 7 7 8 8 8 8 7 6 6 6 6 5 4 5 5 4 5 4 4 4 4 3 3 4 4 5 5 6 7 7 8 9 9 8 11 9
5 9 8 6 6 6 6 6 7 7 7 7 7 7 4 3 3 3 4 5 6 6 5 5 5 4 4 3 4 4 4 5 6 5 5 6 6 7 9 10 9 10 9
4 6 9 6 5 6 6 6 7 7 7 7 7 7 7 5 6 6 5 5 6 6 6 5 5 4 4 3 3 4 5 4 5 5 5 6 6 6 7 8 9 9 9
4 4 4 5 5 6 6 6 6 7 7 8 7 7 8 5 5 5 5 5 6 6 6 5 5 4 4 4 4 4 5 5 5 5 5 6 6 7 7 8 9 9 10
4 4 4 4 5 6 6 6 6 6 7 7 7 6 6 5 5 5 5 5 5 5 5 5 5 5 4 4 4 5 5 5 6 6 6 6 6 7 8 9 11 11 11
4 4 4 4 4 5 5 6 6 6 7 7 6 6 6 6 6 6 6 5 4 4 4 4 5 7 7 5 5 5 5 5 5 6 9 8 8 7 8 9 10 12 12
3 3 3 3 4 5 6 6 6 7 7 6 6 6 7 7 6 6 6 5 5 4 5 4 4 6 8 8 7 6 6 7 6 6 7 7 8 9 9 10 9 11 11
2 2 2 2 3 4 5 6 6 7 7 6 6 6 7 7 7 6 6 5 5 4 4 4 4 5 6 6 7 6 6 7 8 8 7 7 9 8 9 8 11 11 12
Wind_Direction
252 251 255 259 258 259 260 263 267 271 273 273 275 278 280 277 267 248 245 247 248 256 262 261 265 265 261 252 239 234 232 227 251 272 273 294 304 295 16 81 116 147 172
253 252 252 259 264 264 264 266 267 271 273 273 275 275 275 275 268 260 261 256 241 245 250 250 258 262 258 254 242 236 234 230 238 264 274 285 291 254 130 102 84 93 110
256 252 257 261 260 261 263 267 268 269 274 276 274 274 275 274 271 266 263 263 253 244 240 239 246 248 254 251 245 241 237 237 231 244 259 254 258 192 141 118 106 98 95
255 251 256 258 257 260 265 267 267 267 271 273 272 271 272 273 272 270 267 266 264 258 244 236 237 237 242 245 246 240 236 236 233 235 244 242 232 195 168 157 149 135 122
254 254 256 260 262 264 267 269 269 269 272 270 274 274 271 270 268 264 260 263 262 264 258 246 238 236 236 236 237 234 229 229 227 227 231 230 221 197 188 168 160 142 122
252 257 263 267 267 268 269 272 275 276 276 275 275 275 274 271 270 268 268 265 261 262 264 258 248 249 247 243 241 238 228 225 225 223 223 223 224 214 189 171 157 160 166
257 264 268 267 269 270 273 277 278 279 278 279 276 274 273 271 268 270 271 269 261 259 259 259 259 252 239 233 237 243 243 237 225 220 225 222 220 214 198 184 178 167 155
266 270 271 269 271 274 275 276 277 276 277 279 279 277 275 275 271 268 271 270 262 258 255 252 253 254 245 229 230 235 239 242 235 230 230 228 225 219 206 198 175 145 120
267 269 270 271 274 278 278 278 278 278 280 281 280 279 278 280 277 273 271 268 262 261 257 253 249 250 245 231 230 235 237 241 242 235 229 229 225 218 199 181 171 164 159
263 266 271 272 273 276 277 278 277 276 279 283 283 279 275 277 277 276 273 264 264 265 262 256 249 246 243 233 231 231 234 234 235 234 228 229 225 219 203 195 184 177 161
262 269 274 273 274 276 277 276 279 281 283 283 284 282 276 271 274 275 274 261 257 265 265 261 253 241 238 236 229 229 228 223 226 228 225 220 214 211 205 200 190 182 172
260 270 276 279 281 285 281 283 281 279 284 286 286 287 280 270 264 271 273 267 257 259 263 262 258 247 241 237 231 227 221 216 222 221 219 215 207 203 199 195 194 191 179
260 272 279 286 285 282 279 282 286 281 279 284 284 287 290 283 270 265 271 275 274 265 262 262 259 252 246 240 233 222 215 215 214 215 215 212 204 197 188 189 188 175 148
259 274 282 288 291 289 281 275 278 281 283 284 285 286 289 286 278 271 271 278 284 282 279 274 266 255 243 236 228 220 213 211 210 213 212 207 195 190 189 183 180 168 156
259 274 283 284 285 291 288 277 274 269 262 269 280 278 282 284 274 259 270 279 282 284 292 276 264 253 237 227 220 212 204 204 208 209 204 197 193 190 187 185 177 166 168
260 274 278 284 288 290 296 300 278 264 270 264 258 257 263 257 268 275 277 279 282 285 279 264 268 265 252 236 220 209 203 203 202 200 199 194 190 187 185 184 180 178 173
246 266 276 281 287 293 296 301 309 309 294 282 276 271 259 265 266 267 275 286 283 276 257 259 260 261 259 240 222 211 200 198 194 195 195 191 187 185 183 184 184 182 177
245 264 273 276 282 287 290 293 295 301 309 309 305 295 286 278 271 266 269 283 272 248 243 253 255 251 250 249 230 213 200 186 188 191 189 187 185 183 182 183 183 180 174
243 258 268 276 280 283 286 289 292 293 293 295 301 303 296 289 278 260 239 238 256 263 255 253 252 250 245 242 232 210 201 198 195 193 188 185 184 181 182 181 178 171 167
243 263 274 279 285 289 291 293 298 299 298 298 299 299 301 292 284 265 230 237 247 255 256 254 251 248 243 228 215 210 205 199 196 195 189 182 183 183 181 175 172 172 170
240 266 281 286 283 287 291 295 298 298 297 298 296 293 288 283 279 272 260 247 245 249 251 251 250 245 235 220 207 203 200 199 197 188 184 183 181 181 177 173 171 168 163
228 251 266 278 285 289 293 295 298 297 297 298 303 307 304 285 279 276 270 261 251 245 241 239 243 239 228 215 203 198 196 192 193 192 187 183 181 178 171 170 168 164 162
223 249 266 276 284 292 298 301 302 301 301 302 304 309 312 306 298 290 283 279 268 256 242 232 237 242 232 220 211 205 203 200 194 187 181 179 176 173 169 170 169 166 166
216 240 260 277 288 294 301 307 308 307 307 308 310 310 309 307 305 303 297 290 281 269 253 236 231 234 234 224 217 215 216 208 192 188 185 178 173 170 168 169 171 171 170
212 233 257 278 293 300 305 309 309 310 311 311 313 313 313 314 314 313 310 303 296 284 275 259 242 236 233 229 222 216 208 198 193 182 178 177 173 171 169 170 170 169 169
197 221 262 290 301 306 308 310 310 312 312 314 316 317 318 319 319 320 319 315 309 297 285 273 253 242 234 226 222 212 191 184 184 181 175 171 171 172 171 173 172 172 170